FW1349 Weather Reports


time (UTC)temp
C
wind
direction
speed
KPH
gust
KPH
rain 1hr
cm
rain 24hr
cm
rain mn
cm
humidity
%
barometer
mb
20240420094708 0 98 4.8 16.1 0.00 0.00 0.00 68 698.5
20240420094601 0 147 4.8 16.1 0.00 0.00 0.00 68 698.5
20240420094104 0 40 4.8 17.7 0.00 0.00 0.00 67 698.5
20240420093617 1 139 4.8 17.7 0.00 0.00 0.00 66 698.5
20240420093055 1 72 4.8 16.1 0.00 0.00 0.00 67 698.6
20240420092602 1 51 4.8 17.7 0.00 0.00 0.00 69 698.6
20240420092315 1 34 6.4 17.7 0.00 0.00 0.00 69 698.6
20240420091633 1 65 3.2 14.5 0.00 0.00 0.00 69 698.6
20240420091223 1 49 1.6 11.3 0.00 0.00 0.00 70 698.6
20240420091049 1 78 1.6 11.3 0.00 0.00 0.00 69 698.6
20240420090547 1 90 1.6 11.3 0.00 0.00 0.00 69 698.6
20240420090054 1 76 3.2 9.7 0.00 0.00 0.00 70 698.6
20240420085809 1 57 3.2 11.3 0.00 0.00 0.00 69 698.6
20240420085052 1 93 3.2 14.5 0.00 0.00 0.00 69 698.6
20240420084619 1 231 3.2 14.5 0.00 0.00 0.00 70 698.6
20240420084307 1 88 4.8 17.7 0.00 0.00 0.00 70 698.6
20240420083634 1 288 3.2 17.7 0.00 0.00 0.00 70 698.6
20240420083109 1 75 1.6 17.7 0.00 0.00 0.00 71 698.6
20240420082601 1 85 1.6 11.3 0.00 0.00 0.00 71 698.6
20240420082431 1 87 1.6 11.3 0.00 0.00 0.00 72 698.6
20240420081716 1 35 1.6 8.0 0.00 0.00 0.00 72 698.6
20240420081622 1 44 1.6 8.0 0.00 0.00 0.00 72 698.6
20240420081123 1 38 1.6 12.9 0.00 0.00 0.00 73 698.6
20240420080617 1 60 3.2 12.9 0.00 0.00 0.00 74 698.6
20240420080221 1 69 3.2 11.3 0.00 0.00 0.00 74 698.6
20240420075714 1 55 3.2 14.5 0.00 0.00 0.00 75 698.6
20240420075623 1 56 3.2 14.5 0.00 0.00 0.00 75 698.6
20240420075347 1 15 3.2 11.3 0.00 0.00 0.00 75 698.6
20240420074605 1 96 3.2 11.3 0.00 0.00 0.00 75 698.6
20240420074113 1 31 3.2 9.7 0.00 0.00 0.00 75 698.6
20240420073714 1 46 3.2 9.7 0.00 0.00 0.00 75 698.6
20240420073625 1 59 3.2 11.3 0.00 0.00 0.00 75 698.6
20240420073127 1 53 3.2 11.3 0.00 0.00 0.00 74 698.6
20240420072612 1 41 3.2 11.3 0.00 0.00 0.00 74 698.6
20240420072202 1 35 1.6 8.0 0.00 0.00 0.00 74 698.6
20240420071709 1 25 3.2 17.7 0.00 0.00 0.00 73 698.6
20240420071216 1 126 4.8 17.7 0.00 0.00 0.00 72 698.6
20240420071050 1 128 4.8 17.7 0.00 0.00 0.00 72 698.6
20240420070552 1 99 4.8 14.5 0.00 0.00 0.00 71 698.6
20240420070143 1 13 3.2 14.5 0.00 0.00 0.00 70 698.6
20240420065819 1 34 3.2 12.9 0.00 0.00 0.00 69 698.6
20240420065808 1 28 3.2 12.9 0.00 0.00 0.00 69 698.6
20240420065053 1 56 3.2 11.3 0.00 0.00 0.00 68 698.6
20240420064709 2 70 3.2 11.3 0.00 0.00 0.00 68 698.6
20240420064200 2 31 3.2 11.3 0.00 0.00 0.00 66 714.9
20240420063851 2 32 3.2 11.3 0.00 0.00 0.00 65 715.0
20240420063115 2 39 1.6 9.7 0.00 0.00 0.00 65 715.0
20240420062605 2 61 1.6 6.4 0.00 0.00 0.00 64 715.0
20240420062202 2 31 0.0 6.4 0.00 0.00 0.00 64 715.0
20240420061709 2 40 1.6 9.7 0.00 0.00 0.00 64 715.0
20240420061604 2 63 1.6 9.7 0.00 0.00 0.00 64 715.0
20240420061047 2 96 1.6 6.4 0.00 0.00 0.00 63 715.0
20240420060612 2 82 3.2 9.7 0.00 0.00 0.00 63 715.0
20240420060411 2 63 3.2 9.7 0.00 0.00 0.00 63 715.0
20240420055635 2 67 3.2 16.1 0.00 0.00 0.00 63 1005.6
20240420055220 2 355 3.2 17.7 0.00 0.00 0.00 63 1005.6
20240420055123 2 28 3.2 17.7 0.00 0.00 0.00 63 1005.6
20240420054619 2 61 1.6 9.7 0.00 0.00 0.00 64 1005.6
20240420054056 2 67 1.6 8.0 0.00 0.00 0.00 64 1005.6
20240420053732 2 57 1.6 16.1 0.00 0.00 0.00 64 1005.6
20240420053222 2 76 1.6 16.1 0.00 0.00 0.00 64 1005.6
20240420052941 2 25 1.6 9.7 0.00 0.00 0.00 65 1005.6
20240420052559 2 55 1.6 9.7 0.00 0.00 0.00 65 1005.6
20240420052324 2 63 1.6 16.1 0.00 0.00 0.00 65 1005.6
20240420051900 2 12 1.6 16.1 0.00 0.00 0.00 65 1005.6
20240420051112 2 30 0.0 6.4 0.00 0.00 0.00 66 1005.6
20240420050636 2 59 0.0 8.0 0.00 0.00 0.00 66 1005.6
20240420050104 1 61 0.0 8.0 0.00 0.00 0.00 66 1005.6
20240420045817 2 56 0.0 9.7 0.00 0.00 0.00 66 1005.6
20240420045100 2 69 0.0 9.7 0.00 0.00 0.00 66 1005.6
20240420044556 2 54 1.6 8.0 0.00 0.00 0.00 65 1005.6
20240420044140 2 72 1.6 8.0 0.00 0.00 0.00 65 1005.6
20240420043716 2 61 1.6 11.3 0.00 0.00 0.00 65 1005.6
20240420043606 2 26 1.6 11.3 0.00 0.00 0.00 65 1005.6
20240420043053 2 256 1.6 11.3 0.00 0.00 0.00 65 1005.6
20240420042639 2 65 1.6 6.4 0.00 0.00 0.00 65 1005.6
20240420042212 2 24 1.6 6.4 0.00 0.00 0.00 66 1005.6
20240420041700 2 40 0.0 6.4 0.00 0.00 0.00 66 1005.6
20240420041210 2 36 0.0 8.0 0.00 0.00 0.00 66 1005.6
20240420040209 2 337 1.6 8.0 0.00 0.00 0.00 65 1005.6
20240420040122 2 52 1.6 8.0 0.00 0.00 0.00 65 1005.6
20240420035612 2 9 1.6 8.0 0.00 0.00 0.00 65 1005.6
20240420035222 2 59 0.0 4.8 0.00 0.00 0.00 65 1005.6
20240420034704 2 65 1.6 11.3 0.00 0.00 0.00 65 1005.6
20240420034109 2 95 0.0 9.7 0.00 0.00 0.00 65 1005.6
20240420033610 2 26 0.0 16.1 0.00 0.00 0.00 65 1005.6
20240420033203 2 90 1.6 16.1 0.00 0.00 0.00 65 1005.6
20240420032649 2 72 1.6 9.7 0.00 0.00 0.00 65 1005.6
20240420032144 2 80 1.6 9.7 0.00 0.00 0.00 65 1005.6
20240420031635 2 96 1.6 16.1 0.00 0.00 0.00 66 1005.6
20240420031139 2 75 1.6 16.1 0.00 0.00 0.00 65 1005.6
20240420030548 2 92 1.6 11.3 0.00 0.00 0.00 66 1005.6
20240420030214 2 52 1.6 11.3 0.00 0.00 0.00 66 1005.6
20240420030114 2 49 1.6 11.3 0.00 0.00 0.00 66 1005.6
20240420025618 2 14 1.6 6.4 0.00 0.00 0.00 66 1005.6
20240420025057 2 84 1.6 11.3 0.00 0.00 0.00 67 1005.6
20240420024615 2 38 1.6 6.4 0.00 0.00 0.00 67 1005.6
20240420024100 2 80 1.6 6.4 0.00 0.00 0.00 66 1005.6
20240420023902 2 51 1.6 6.4 0.00 0.00 0.00 66 1005.6
20240420023205 2 60 1.6 16.1 0.00 0.00 0.00 66 1005.6
20240420023105 2 50 1.6 16.1 0.00 0.00 0.00 66 1005.6
20240420022559 2 68 1.6 16.1 0.00 0.00 0.00 66 1005.6
20240420022218 2 50 1.6 6.4 0.00 0.00 0.00 66 1005.6
20240420021705 2 63 1.6 8.0 0.00 0.00 0.00 65 1005.6
20240420021438 2 47 1.6 8.0 0.00 0.00 0.00 65 1005.6
20240420021146 2 57 1.6 11.3 0.00 0.00 0.00 65 1005.6
20240420020641 2 107 1.6 11.3 0.00 0.00 0.00 65 1005.6
20240420020339 2 61 1.6 11.3 0.00 0.00 0.00 64 1005.6
20240420015706 2 138 3.2 14.5 0.00 0.00 0.00 64 1005.6
20240420015416 2 78 1.6 8.0 0.00 0.00 0.00 64 1005.6
20240420014208 2 45 3.2 11.3 0.00 0.00 0.00 63 1005.6
20240420014049 2 99 1.6 11.3 0.00 0.00 0.00 62 1005.6
20240420013551 2 71 1.6 11.3 0.00 0.00 0.00 61 1005.6
20240420013138 2 68 1.6 11.3 0.00 0.00 0.00 61 1005.6
20240420012620 2 50 1.6 16.1 0.00 0.00 0.00 60 1005.6
20240420012341 2 54 1.6 9.7 0.00 0.00 0.00 59 1005.7
20240420011602 2 76 3.2 14.5 0.00 0.00 0.00 59 1005.7
20240420011145 2 86 3.2 14.5 0.00 0.00 0.00 59 1005.7
20240420011108 2 23 3.2 14.5 0.00 0.00 0.00 59 1005.7
20240420010823 2 22 3.2 20.9 0.00 0.00 0.00 58 1005.7
20240420010102 2 42 1.6 17.7 0.00 0.00 0.00 58 1005.7
20240420005708 2 46 3.2 17.7 0.00 0.00 0.00 57 1005.7
20240420005131 2 10 3.2 17.7 0.00 0.00 0.00 57 1005.7
20240420004558 3 80 3.2 16.1 0.00 0.00 0.00 57 1005.7
20240420004442 3 95 3.2 14.5 0.00 0.00 0.00 57 1005.7
20240420003725 3 88 4.8 16.1 0.00 0.00 0.00 56 1005.7
20240420003219 3 71 3.2 11.3 0.00 0.00 0.00 57 1005.7
20240420002646 3 61 4.8 19.3 0.00 0.00 0.00 56 1005.7
20240420002118 3 32 4.8 20.9 0.00 0.00 0.00 56 1005.7
20240420001845 3 327 4.8 19.3 0.00 0.00 0.00 55 1005.7
20240420001220 3 51 4.8 12.9 0.00 0.00 0.00 56 1005.7
20240420000721 3 46 3.2 12.9 0.00 0.00 0.00 55 1005.7
20240420000429 3 50 3.2 12.9 0.00 0.00 0.00 55 1005.7
20240420000122 3 28 3.2 12.9 0.00 0.00 0.00 55 1005.7
20240419235617 3 78 3.2 19.3 0.00 0.00 0.00 55 1005.7
20240419235206 3 71 3.2 19.3 0.00 0.00 0.00 55 1005.7
20240419234631 3 40 4.8 17.7 0.00 0.00 0.00 55 1005.7
20240419234141 3 67 4.8 17.7 0.00 0.00 0.00 55 1005.7
20240419233214 3 12 3.2 14.5 0.00 0.00 0.00 54 1005.7
20240419232721 3 13 1.6 14.5 0.00 0.00 0.00 54 1005.7
20240419232627 3 63 1.6 14.5 0.00 0.00 0.00 55 1005.7
20240419232306 3 79 1.6 9.7 0.00 0.00 0.00 55 1005.7
20240419232049 3 61 6.4 20.9 0.00 0.00 0.00 55 1005.7
20240419231115 3 250 6.4 24.1 0.00 0.00 0.00 54 1005.7
20240419230721 3 67 6.4 24.1 0.00 0.00 0.00 54 1005.7
20240419230619 3 55 6.4 22.5 0.00 0.00 0.00 55 1005.7
20240419230102 3 44 8.0 22.5 0.00 0.00 0.00 54 1005.7
20240419225822 3 49 6.4 22.5 0.00 0.00 0.00 53 1005.7
20240419225414 3 77 6.4 22.5 0.00 0.00 0.00 53 1005.7
20240419224608 3 57 6.4 20.9 0.00 0.00 0.00 53 1005.7
20240419224105 3 23 6.4 22.5 0.00 0.00 0.00 53 1005.7
20240419223607 3 25 4.8 22.5 0.00 0.00 0.00 53 747.9
20240419223059 3 351 4.8 17.7 0.00 0.00 0.00 53 748.0
20240419222623 3 79 6.4 20.9 0.00 0.00 0.00 52 747.9
20240419222203 3 35 6.4 22.5 0.00 0.00 0.00 52 747.9
20240419222057 3 78 6.4 22.5 0.00 0.00 0.00 52 748.0
20240419221823 3 98 4.8 22.5 0.00 0.00 0.00 52 748.0
20240419221047 3 37 4.8 17.7 0.00 0.00 0.00 53 748.0
20240419220809 3 62 6.4 19.3 0.00 0.00 0.00 53 748.0
20240419220124 3 19 4.8 19.3 0.00 0.00 0.00 53 748.0
20240419215644 3 37 3.2 17.7 0.00 0.00 0.00 53 748.0
20240419215555 3 76 3.2 17.7 0.00 0.00 0.00 53 748.0
20240419215322 3 14 4.8 16.1 0.00 0.00 0.00 53 748.0
20240419214907 3 87 4.8 16.1 0.00 0.00 0.00 52 748.0
20240419214141 3 38 3.2 17.7 0.00 0.00 0.00 52 748.0
20240419213837 3 74 3.2 14.5 0.00 0.00 0.00 52 748.0
20240419213154 3 53 3.2 24.1 0.00 0.00 0.00 52 748.0
20240419212610 3 72 3.2 24.1 0.00 0.00 0.00 52 748.0
20240419212130 3 69 6.4 20.9 0.00 0.00 0.00 51 748.0
20240419211642 3 57 6.4 20.9 0.00 0.00 0.00 51 748.0
20240419211328 3 31 4.8 20.9 0.00 0.00 0.00 51 748.0
20240419211319 3 76 6.4 20.9 0.00 0.00 0.00 51 748.0
20240419210605 3 65 4.8 30.6 0.00 0.00 0.00 51 748.0
20240419210145 3 28 6.4 30.6 0.00 0.00 0.00 51 748.0
20240419205724 3 350 6.4 24.1 0.00 0.00 0.00 51 748.0
20240419205614 3 42 6.4 22.5 0.00 0.00 0.00 51 748.0
20240419205106 3 36 4.8 20.9 0.00 0.00 0.00 52 748.0
20240419204615 3 23 4.8 20.9 0.00 0.00 0.00 51 748.0
20240419204351 3 10 4.8 25.7 0.00 0.00 0.00 51 748.0
20240419203657 3 135 4.8 25.7 0.00 0.00 0.00 50 748.0
20240419203216 3 129 3.2 16.1 0.00 0.00 0.00 52 748.0
20240419203137 3 53 3.2 16.1 0.00 0.00 0.00 53 748.0
20240419202638 3 59 1.6 17.7 0.00 0.00 0.00 52 748.0
20240419202107 3 58 3.2 20.9 0.00 0.00 0.00 54 747.9
20240419201631 3 81 6.4 27.4 0.00 0.00 0.00 53 747.9
20240419201154 3 55 6.4 27.4 0.00 0.00 0.00 52 747.9
20240419200200 3 56 4.8 25.7 0.00 0.00 0.00 53 747.9
20240419195705 3 55 4.8 25.7 0.00 0.00 0.00 54 747.9
20240419195547 3 84 4.8 14.5 0.00 0.00 0.00 54 747.9
20240419195047 3 54 6.4 16.1 0.00 0.00 0.00 53 747.9
20240419194705 3 82 6.4 19.3 0.00 0.00 0.00 53 747.9
20240419194218 3 86 6.4 20.9 0.00 0.00 0.00 52 747.9
20240419193710 3 101 6.4 20.9 0.00 0.00 0.00 51 747.9
20240419193624 3 43 8.0 20.9 0.00 0.00 0.00 51 747.9
20240419193122 3 54 8.0 17.7 0.00 0.00 0.00 51 747.9
20240419192720 3 112 8.0 30.6 0.00 0.00 0.00 50 747.9
20240419192634 3 36 6.4 30.6 0.00 0.00 0.00 51 747.9
20240419192134 3 29 8.0 30.6 0.00 0.00 0.00 51 747.9
20240419191701 3 103 8.0 27.4 0.00 0.00 0.00 51 747.9
20240419191326 3 108 8.0 24.1 0.00 0.00 0.00 51 747.9
20240419191312 3 132 8.0 24.1 0.00 0.00 0.00 51 747.9
20240419190647 3 46 9.7 24.1 0.00 0.00 0.00 51 747.9
20240419185713 3 69 6.4 30.6 0.00 0.00 0.00 52 747.9
20240419185220 3 178 4.8 30.6 0.00 0.00 0.00 52 747.9
20240419184704 3 75 6.4 24.1 0.00 0.00 0.00 52 747.9
20240419184223 3 82 8.0 24.1 0.00 0.00 0.00 52 747.9
20240419183711 3 38 9.7 32.2 0.00 0.00 0.00 51 747.9
20240419183215 3 24 6.4 27.4 0.00 0.00 0.00 51 747.9
20240419182715 3 67 6.4 20.9 0.00 0.00 0.00 50 747.9
20240419182623 3 97 6.4 20.9 0.00 0.00 0.00 50 747.9
20240419182331 3 51 6.4 25.7 0.00 0.00 0.00 50 748.0
20240419181839 3 61 4.8 25.7 0.00 0.00 0.00 50 748.0
20240419181055 3 49 4.8 20.9 0.00 0.00 0.00 49 748.0
20240419180721 3 80 8.0 22.5 0.00 0.00 0.00 49 747.9
20240419180629 3 41 8.0 22.5 0.00 0.00 0.00 51 748.0
20240419180122 3 61 9.7 27.4 0.00 0.00 0.00 50 747.9
20240419175559 3 63 6.4 27.4 0.00 0.00 0.00 49 748.0
20240419175109 3 13 4.8 16.1 0.00 0.00 0.00 50 748.0
20240419175103 3 44 4.8 16.1 0.00 0.00 0.00 50 748.0
20240419175059 3 13 3.2 16.1 0.00 0.00 0.00 50 748.0
20240419174122 3 34 4.8 43.5 0.00 0.00 0.00 51 748.0
20240419173614 3 82 6.4 43.5 0.00 0.00 0.00 50 747.9
20240419173053 3 331 8.0 29.0 0.00 0.00 0.00 51 747.9
20240419172617 3 114 8.0 30.6 0.00 0.00 0.00 51 748.0
20240419172213 3 22 6.4 30.6 0.00 0.00 0.00 50 748.0
20240419172106 3 280 6.4 30.6 0.00 0.00 0.00 50 748.0
20240419171824 4 70 3.2 14.5 0.00 0.00 0.00 50 748.0
20240419171130 4 62 4.8 33.8 0.00 0.00 0.00 50 748.0
20240419170729 4 28 6.4 35.4 0.00 0.00 0.00 48 748.0
20240419170141 4 59 6.4 35.4 0.00 0.00 0.00 49 748.0
20240419165717 4 319 6.4 25.7 0.00 0.00 0.00 51 748.0
20240419165645 4 0 6.4 30.6 0.00 0.00 0.00 51 748.0
20240419165128 3 26 11.3 30.6 0.00 0.00 0.00 51 748.0
20240419164849 3 49 9.7 27.4 0.00 0.00 0.00 49 747.9
20240419164159 3 44 8.0 27.4 0.00 0.00 0.00 52 748.0
20240419164119 3 26 6.4 27.4 0.00 0.00 0.00 52 748.0
20240419163616 3 107 4.8 22.5 0.00 0.00 0.00 53 748.0
20240419163146 3 82 4.8 22.5 0.00 0.00 0.00 56 748.0
20240419162656 3 0 4.8 19.3 0.00 0.00 0.00 56 748.0
20240419162606 3 84 4.8 19.3 0.00 0.00 0.00 57 748.0
20240419161657 3 88 4.8 24.1 0.00 0.00 0.00 62 747.9
20240419161618 3 64 4.8 24.1 0.00 0.00 0.00 61 747.9
20240419161333 2 63 4.8 22.5 0.00 0.00 0.00 62 747.9
20240419160651 2 75 4.8 22.5 0.00 0.00 0.00 62 747.9
20240419160206 3 19 3.2 16.1 0.00 0.00 0.00 63 747.9
20240419160127 3 88 3.2 16.1 0.00 0.00 0.00 63 747.9
20240419155624 3 16 4.8 20.9 0.00 0.00 0.00 64 747.9
20240419155219 2 79 6.4 20.9 0.00 0.00 0.00 63 747.9
20240419154824 2 342 6.4 24.1 0.00 0.00 0.00 63 747.9
20240419154809 2 351 6.4 24.1 0.00 0.00 0.00 63 747.9
20240419154312 2 90 6.4 24.1 0.00 0.00 0.00 63 747.9
20240419153606 2 64 6.4 20.9 0.00 0.00 0.00 63 747.9
20240419153110 2 23 6.4 20.9 0.00 0.00 0.00 62 747.9
20240419152718 2 28 4.8 20.9 0.00 0.00 0.00 63 747.9
20240419152147 2 69 4.8 22.5 0.00 0.00 0.00 61 747.9
20240419151722 2 16 6.4 27.4 0.00 0.00 0.00 61 747.9
20240419151638 2 106 6.4 27.4 0.00 0.00 0.00 60 747.9
20240419151309 2 51 6.4 27.4 0.00 0.00 0.00 60 747.9
20240419151300 2 52 6.4 27.4 0.00 0.00 0.00 60 747.9
20240419150546 2 38 6.4 22.5 0.00 0.00 0.00 59 747.9
20240419150117 2 92 4.8 22.5 0.00 0.00 0.00 61 747.9
20240419145719 2 70 4.8 20.9 0.00 0.00 0.00 63 747.9
20240419145637 2 46 4.8 20.9 0.00 0.00 0.00 64 747.9
20240419145138 2 0 4.8 22.5 0.00 0.00 0.00 64 747.9
20240419144654 2 53 4.8 17.7 0.00 0.00 0.00 66 747.9
20240419144602 2 336 4.8 17.7 0.00 0.00 0.00 66 747.9
20240419144105 2 80 4.8 20.9 0.00 0.00 0.00 64 747.9
20240419143643 2 56 4.8 20.9 0.00 0.00 0.00 64 747.9
20240419143445 2 12 6.4 24.1 0.00 0.00 0.00 63 747.9
20240419143051 2 350 6.4 24.1 0.00 0.00 0.00 63 747.9
20240419142549 2 216 3.2 17.7 0.00 0.00 0.00 65 747.9
20240419142049 2 0 3.2 16.1 0.00 0.00 0.00 65 747.9
20240419141648 2 19 3.2 11.3 0.00 0.00 0.00 66 747.9
20240419141209 2 271 4.8 24.1 0.00 0.00 0.00 66 747.9
20240419140941 2 61 4.8 24.1 0.00 0.00 0.00 66 747.9
20240419140154 2 82 6.4 22.5 0.00 0.00 0.00 66 747.9
20240419135655 3 113 3.2 11.3 0.00 0.00 0.00 66 747.9
20240419135556 3 9 0.0 3.2 0.00 0.00 0.00 66 747.9
20240419134834 3 72 1.6 11.3 0.00 0.00 0.00 67 747.9
20240419134113 3 24 3.2 11.3 0.00 0.00 0.00 66 747.9
20240419133634 3 346 3.2 14.5 0.00 0.00 0.00 67 747.9
20240419133443 3 53 4.8 19.3 0.00 0.00 0.00 66 747.9
20240419133128 3 54 3.2 19.3 0.00 0.00 0.00 66 747.9
20240419132157 2 98 4.8 22.5 0.00 0.00 0.00 66 747.9
20240419131618 2 5 4.8 22.5 0.00 0.00 0.00 67 747.9
20240419131340 2 82 4.8 25.7 0.00 0.00 0.00 68 747.9
20240419130933 2 79 4.8 25.7 0.00 0.00 0.00 69 747.9
20240419130153 2 80 3.2 17.7 0.00 0.00 0.00 70 747.9
20240419125630 2 20 1.6 17.7 0.00 0.00 0.00 71 747.9
20240419125110 2 90 1.6 17.7 0.00 0.00 0.00 71 747.9
20240419124926 2 167 1.6 17.7 0.00 0.00 0.00 71 747.8
20240419124210 2 26 1.6 8.0 0.00 0.00 0.00 72 747.8
20240419123723 1 113 0.0 8.0 0.00 0.00 0.00 72 747.8
20240419123645 1 9 0.0 8.0 0.00 0.00 0.00 72 747.8
20240419123146 1 74 1.6 11.3 0.00 0.00 0.00 72 747.8
20240419122654 1 30 1.6 11.3 0.00 0.00 0.00 73 747.8
20240419122406 1 338 1.6 11.3 0.00 0.00 0.00 73 747.8
20240419122057 1 273 1.6 11.3 0.00 0.00 0.00 73 747.8
20240419121546 1 327 0.0 4.8 0.00 0.00 0.00 74 747.8
20240419121441 1 355 0.0 3.2 0.00 0.00 0.00 74 747.8
20240419121113 1 104 0.0 3.2 0.00 0.00 0.00 74 747.8
20240419120613 1 5 0.0 3.2 0.00 0.00 0.00 74 747.8
20240419120140 1 312 0.0 3.2 0.00 0.00 0.00 74 747.8
20240419115629 1 72 0.0 6.4 0.00 0.00 0.00 75 747.8
20240419115206 1 345 0.0 8.0 0.00 0.00 0.00 75 747.8
20240419115106 1 346 0.0 8.0 0.00 0.00 0.00 75 747.8
20240419114605 1 71 0.0 3.2 0.00 0.00 0.00 74 747.8
20240419114220 1 71 0.0 3.2 0.00 0.00 0.00 75 747.8
20240419114115 1 311 0.0 3.2 0.00 0.00 0.00 75 747.8
20240419113825 1 303 0.0 3.2 0.00 0.00 0.00 74 747.8
20240419113103 1 44 0.0 4.8 0.00 0.00 0.00 74 747.8
20240419112708 1 44 0.0 4.8 0.00 0.00 0.00 74 747.8
20240419112121 1 306 0.0 3.2 0.00 0.00 0.00 74 747.8
20240419111939 1 217 0.0 3.2 0.00 0.00 0.00 74 747.8
20240419111205 1 144 0.0 0.0 0.00 0.00 0.00 73 747.8
20240419110609 1 144 0.0 0.0 0.00 0.00 0.00 73 747.8
20240419110158 1 149 0.0 1.6 0.00 0.00 0.00 73 747.8
20240419110106 1 157 0.0 1.6 0.00 0.00 0.00 73 747.8
20240419105827 1 111 0.0 3.2 0.00 0.00 0.00 72 747.8
20240419105130 1 355 0.0 6.4 0.00 0.00 0.00 72 747.8
20240419104615 1 290 0.0 6.4 0.00 0.00 0.00 71 747.8
20240419104111 1 252 0.0 1.6 0.00 0.00 0.00 71 747.8
20240419103609 1 252 0.0 1.6 0.00 0.00 0.00 71 747.8
20240419103134 1 236 0.0 0.0 0.00 0.00 0.00 71 747.8
20240419102552 1 236 0.0 1.6 0.00 0.00 0.00 70 747.8
20240419102141 1 99 0.0 0.0 0.00 0.00 0.00 70 747.8
20240419101604 1 99 0.0 0.0 0.00 0.00 0.00 70 747.8
20240419101322 1 99 0.0 1.6 0.00 0.00 0.00 69 747.8
20240419100631 1 99 0.0 3.2 0.00 0.00 0.00 69 747.8
20240419100135 1 98 0.0 3.2 0.00 0.00 0.00 69 747.8
20240419095618 1 40 0.0 3.2 0.00 0.00 0.00 69 747.8
20240419095158 1 33 0.0 3.2 0.00 0.00 0.00 69 747.8